Location: Estes Par
(40.3770°N, 105.5210°W)
Time: 17:30:03
(UTC-06:00)

Oscar 11 - Pass Details

Date: 27 June 2018
Orbit: 614 x 625 km, 97.6° (Epoch: 21 July)

Event Time Altitude Azimuth Distance (km) Brightness Sun altitude
Rises 21:16:23 0° 197° (SSW) 2,865 10.3 -7.0°
Reaches altitude 10° 21:18:55 10° 212° (SSW) 1,964 9.6 -7.4°
Maximum altitude 21:22:21 23° 265° (W) 1,295 9.3 -7.9°
Drops below altitude 10° 21:25:49 10° 319° (NW) 1,975 11.3 -8.4°
Sets 21:28:23 0° 334° (NNW) 2,885 11.9 -8.8°
